Plattsburgh, NY

9:19 AM EDT on June 27, 2017 (GMT -0400)
Plattsburgh International

Weather History for KPBG - June, 2013

Change the Weather History Date:

Monday, June 17, 2013

  Actual Average Record
Temperature  
Mean Temperature 65 °F 65 °F  
Max Temperature 76 °F 76 °F 92 °F (1962)
Min Temperature 53 °F 54 °F 44 °F (1968)
Degree Days  
Heating Degree Days 2 2  
Month to date heating degree days 68  
Since 1 June heating degree days 68  
Since 1 July heating degree days 7695  
Cooling Degree Days 0 2  
Month to date cooling degree days 22 27  
Year to date cooling degree days 42 35  
Since 1 June cooling degree days 22 27  
Growing Degree Days 13 (Base 50)    
Moisture  
Dew Point 54 °F    
Average Humidity 75    
Maximum Humidity 100    
Minimum Humidity 49    
Precipitation  
Precipitation T in - 0.45 in (1950)
Month to date precipitation 4.38  
Year to date precipitation 13.57  
Sea Level Pressure  
Sea Level Pressure 29.79 in    
Wind  
Wind Speed 5 mph (West)    
Max Wind Speed 15 mph    
Max Gust Speed 18 mph    
Visibility 6 miles    
Events Fog , Rain    
T = Trace of Precipitation, MM = Missing Value Source: NWS Daily Summary

Daily Weather History Graph

Daily Weather History Graph

Search for Another Location

Airport or City:

Trip Planner

Search our weather history database for the weather conditions in past years. The results will help you decide how hot, cold, wet, or windy it might be!

Date:

Astronomy

Jun. 17, 2013 Rise Set
Actual Time 5:07 AM EDT 8:41 PM EDT
Civil Twilight 4:30 AM EDT 9:18 PM EDT
Nautical Twilight 3:41 AM EDT 10:07 PM EDT
Astronomical Twilight 2:37 AM EDT 11:12 PM EDT
Moon 2:05 PM EDT (6/17) 12:56 AM EDT (6/17)
Length of Visible Light 16h 47m
Length of Day
15h 33m
First Quarter, 60% of the Moon is Illuminated
Jun 17
First Quarter
Jun 23
Full
Jun 30
Last Quarter
Jul 8
New
Jul 15
First Quarter

Hourly Weather History & Observations

Time (EDT) Temp. Dew Point Humidity Pressure Visibility Wind Dir Wind Speed Gust Speed Precip Events Conditions
12:14 AM 55.4 °F 55.4 °F 100% 29.78 in 4.0 mi Calm Calm - N/A   Mostly Cloudy
12:53 AM 57.0 °F 55.9 °F 96% 29.77 in 2.5 mi ESE 3.5 mph - 0.03 in Rain Heavy Rain
1:38 AM 55.4 °F 55.4 °F 100% 29.75 in 3.0 mi Calm Calm - 0.01 in   Overcast
1:48 AM 55.4 °F 55.4 °F 100% 29.75 in 3.0 mi South 4.6 mph - 0.01 in   Overcast
1:53 AM 55.9 °F 55.9 °F 100% 29.75 in 3.0 mi SSW 4.6 mph - 0.01 in   Overcast
2:18 AM 55.4 °F 55.4 °F 100% 29.75 in 4.0 mi SSW 4.6 mph - N/A   Scattered Clouds
2:53 AM 55.0 °F 54.0 °F 96% 29.76 in 3.0 mi Calm Calm - N/A   Scattered Clouds
3:00 AM 55.4 °F 53.6 °F 94% 29.75 in 2.0 mi Calm Calm - N/A   Scattered Clouds
3:03 AM 53.6 °F 53.6 °F 100% 29.75 in 1.0 mi Calm Calm - N/A   Mist
3:07 AM 53.6 °F 53.6 °F 100% 29.75 in 0.5 mi Calm Calm - N/A Fog Fog
3:37 AM 53.6 °F 53.6 °F 100% 29.74 in 0.8 mi Calm Calm - N/A   Mostly Cloudy
3:44 AM 53.6 °F 53.6 °F 100% 29.74 in 0.5 mi Calm Calm - N/A Fog Fog
3:51 AM 53.6 °F 51.8 °F 94% 29.74 in 0.8 mi South 3.5 mph - N/A   Scattered Clouds
3:53 AM 53.1 °F 52.0 °F 96% 29.74 in 0.8 mi South 4.6 mph - N/A   Partly Cloudy
3:58 AM 53.6 °F 53.6 °F 100% 29.74 in 1.0 mi SSW 4.6 mph - N/A   Mist
4:00 AM 53.6 °F 53.6 °F 100% 29.74 in 2.5 mi SSW 3.5 mph - N/A   Clear
4:07 AM 55.4 °F 53.6 °F 94% 29.74 in 7.0 mi SSW 5.8 mph - N/A   Clear
4:53 AM 55.0 °F 54.0 °F 96% 29.75 in 9.0 mi Calm Calm - N/A   Clear
5:53 AM 55.0 °F 54.0 °F 96% 29.76 in 6.0 mi Calm Calm - N/A   Clear
6:53 AM 57.9 °F 57.0 °F 97% 29.78 in 6.0 mi Calm Calm - N/A   Partly Cloudy
7:53 AM 62.1 °F 60.1 °F 93% 29.79 in 8.0 mi SE 4.6 mph - N/A   Scattered Clouds
8:53 AM 69.1 °F 57.9 °F 68% 29.79 in 10.0 mi West 5.8 mph - N/A   Mostly Cloudy
9:53 AM 72.0 °F 57.0 °F 59% 29.79 in 10.0 mi WNW 5.8 mph 16.1 mph N/A   Clear
10:53 AM 71.1 °F 55.0 °F 57% 29.79 in 10.0 mi Variable 3.5 mph - N/A   Mostly Cloudy
11:53 AM 73.0 °F 55.0 °F 53% 29.79 in 10.0 mi Variable 4.6 mph - N/A   Mostly Cloudy
12:53 PM 73.0 °F 55.0 °F 53% 29.79 in 10.0 mi WNW 5.8 mph - N/A   Overcast
1:53 PM 71.1 °F 55.9 °F 59% 29.80 in 10.0 mi NW 5.8 mph - N/A   Overcast
2:53 PM 73.0 °F 53.1 °F 49% 29.81 in 10.0 mi Variable 4.6 mph - N/A   Mostly Cloudy
3:53 PM 70.0 °F 54.0 °F 57% 29.82 in 10.0 mi NW 5.8 mph - N/A   Overcast
4:53 PM 72.0 °F 54.0 °F 53% 29.82 in 10.0 mi WNW 8.1 mph - N/A   Overcast
5:53 PM 69.1 °F 55.0 °F 61% 29.83 in 10.0 mi NNW 6.9 mph - N/A   Overcast
6:53 PM 68.0 °F 54.0 °F 61% 29.85 in 10.0 mi NW 9.2 mph 16.1 mph N/A   Partly Cloudy
7:53 PM 64.9 °F 52.0 °F 63% 29.88 in 10.0 mi NW 5.8 mph - N/A   Partly Cloudy
8:53 PM 62.1 °F 52.0 °F 70% 29.90 in 10.0 mi NNW 9.2 mph - N/A   Scattered Clouds
9:53 PM 60.1 °F 50.0 °F 69% 29.92 in 10.0 mi NNW 8.1 mph - N/A   Overcast
10:53 PM 59.0 °F 48.0 °F 67% 29.92 in 10.0 mi NNW 3.5 mph - N/A   Scattered Clouds
11:53 PM 55.0 °F 48.9 °F 80% 29.95 in 10.0 mi West 3.5 mph - N/A   Clear